Volver al catálogo

BREEZE-M DEB

LostHEO
NORAD 34233·DEBRIS·🇷🇺 Russia

Lanzado Feb 28, 2006 desde Baikonur Cosmodrome

Loading…

Próximos Pases (próximas 24 horas)

TLE

ObsoletoSource: Space-Track

Época: Dec 17, 2021, 18:06 UTC

1 34233U 06006AY  21351.75485792  .00005154  00000-0  78787-2 0  9990
2 34233  52.1868 150.8964 4845568 202.4470 126.1099  5.62680443270239

Sigue BREEZE-M DEB en tiempo real con AllMySat

Download on the App Store